Time,TemperatureF,DewpointF,PressureIn,WindDirection,WindDirectionDegrees,WindSpeedMPH,WindSpeedGustMPH,Humidity,HourlyPrecipIn,Conditions,Clouds,dailyrainin,SoftwareType,DateUTC
2013-05-10 00:00:00,59.2,57.5,29.97,East,83,0.0,0.0,94,0.00,,,0.00,Wunderground v.1.13,2013-05-10 04:00:00,
2013-05-10 00:10:00,59.0,57.3,29.97,East,83,0.0,0.0,94,0.00,,,0.00,Wunderground v.1.13,2013-05-10 04:10:00,
2013-05-10 00:20:00,58.8,57.4,29.97,East,83,0.0,0.0,95,0.00,,,0.00,Wunderground v.1.13,2013-05-10 04:20:00,
2013-05-10 00:23:00,58.9,57.5,29.97,North,-999,0.0,0.0,95,0.00,,,-99.99,WeatherLink 6.0.2,2013-05-10 04:23:00,
2013-05-10 00:30:00,58.6,56.9,29.97,East,83,0.0,0.0,94,0.00,,,0.00,Wunderground v.1.13,2013-05-10 04:30:00,
2013-05-10 00:40:00,58.4,57.0,29.98,East,83,0.0,0.0,95,0.00,,,0.00,Wunderground v.1.13,2013-05-10 04:40:00,
2013-05-10 00:50:00,58.2,56.8,29.98,East,83,0.0,0.0,95,0.00,,,0.00,Wunderground v.1.13,2013-05-10 04:50:00,
2013-05-10 01:00:00,58.0,56.6,29.98,East,83,0.0,0.0,95,0.00,,,0.00,Wunderground v.1.13,2013-05-10 05:00:00,
2013-05-10 01:10:00,57.7,56.3,29.97,East,83,0.0,0.0,95,0.00,,,0.00,Wunderground v.1.13,2013-05-10 05:10:00,
2013-05-10 01:20:00,57.5,56.1,29.97,East,83,0.0,0.0,95,0.00,,,0.00,Wunderground v.1.13,2013-05-10 05:20:00,
2013-05-10 01:30:00,57.3,56.2,29.97,East,83,0.0,0.0,96,0.00,,,0.00,Wunderground v.1.13,2013-05-10 05:30:00,
2013-05-10 01:40:00,57.1,56.0,29.96,East,83,0.0,0.0,96,0.00,,,0.00,Wunderground v.1.13,2013-05-10 05:40:00,
2013-05-10 01:50:00,56.8,55.7,29.96,East,83,0.0,0.0,96,0.00,,,0.00,Wunderground v.1.13,2013-05-10 05:50:00,
2013-05-10 02:00:00,56.6,55.5,29.95,East,83,0.0,0.0,96,0.00,,,0.00,Wunderground v.1.13,2013-05-10 06:00:00,
2013-05-10 02:10:00,56.6,55.5,29.95,East,83,0.0,0.0,96,0.00,,,0.00,Wunderground v.1.13,2013-05-10 06:10:00,
2013-05-10 02:20:00,56.5,55.4,29.95,East,83,0.0,0.0,96,0.00,,,0.00,Wunderground v.1.13,2013-05-10 06:20:00,
2013-05-10 02:30:00,56.4,55.3,29.96,East,83,0.0,0.0,96,0.00,,,0.00,Wunderground v.1.13,2013-05-10 06:30:00,
2013-05-10 02:40:00,56.3,55.5,29.96,East,83,0.0,0.0,97,0.00,,,0.00,Wunderground v.1.13,2013-05-10 06:40:00,
2013-05-10 02:50:00,56.3,55.5,29.95,East,83,0.0,0.0,97,0.00,,,0.00,Wunderground v.1.13,2013-05-10 06:50:00,
2013-05-10 03:00:00,56.2,55.4,29.96,East,83,0.0,0.0,97,0.00,,,0.00,Wunderground v.1.13,2013-05-10 07:00:00,
2013-05-10 03:10:00,56.2,55.4,29.95,East,83,0.0,0.0,97,0.00,,,0.00,Wunderground v.1.13,2013-05-10 07:10:00,
2013-05-10 03:20:00,56.2,55.4,29.95,East,83,0.0,0.0,97,0.00,,,0.00,Wunderground v.1.13,2013-05-10 07:20:00,
2013-05-10 03:30:00,56.1,55.3,29.95,East,83,0.0,0.0,97,0.00,,,0.00,Wunderground v.1.13,2013-05-10 07:30:00,
2013-05-10 03:40:00,56.1,55.3,29.95,East,83,0.0,0.0,97,0.00,,,0.00,Wunderground v.1.13,2013-05-10 07:40:00,
2013-05-10 03:50:00,56.1,55.3,29.95,East,83,0.0,0.0,97,0.00,,,0.00,Wunderground v.1.13,2013-05-10 07:50:00,
2013-05-10 04:00:00,56.1,55.3,29.94,East,83,0.0,0.0,97,0.00,,,0.00,Wunderground v.1.13,2013-05-10 08:00:00,
2013-05-10 04:10:00,56.1,55.3,29.93,East,83,0.0,0.0,97,0.00,,,0.00,Wunderground v.1.13,2013-05-10 08:10:00,
2013-05-10 04:20:00,56.0,55.2,29.93,East,83,0.0,0.0,97,0.00,,,0.00,Wunderground v.1.13,2013-05-10 08:20:00,
2013-05-10 04:30:00,55.9,55.1,29.93,East,83,0.0,0.0,97,0.00,,,0.00,Wunderground v.1.13,2013-05-10 08:30:00,
2013-05-10 04:40:00,55.9,55.1,29.93,East,83,0.0,0.0,97,0.00,,,0.00,Wunderground v.1.13,2013-05-10 08:40:00,
2013-05-10 04:50:00,55.8,55.0,29.94,East,83,0.0,0.0,97,0.00,,,0.00,Wunderground v.1.13,2013-05-10 08:50:00,
2013-05-10 05:00:00,55.8,55.2,29.93,East,83,0.0,0.0,98,0.00,,,0.00,Wunderground v.1.13,2013-05-10 09:00:00,
2013-05-10 05:10:00,55.7,54.9,29.94,East,83,0.0,0.0,97,0.00,,,0.00,Wunderground v.1.13,2013-05-10 09:10:00,
2013-05-10 05:20:00,55.6,54.8,29.93,East,83,0.0,0.0,97,0.00,,,0.00,Wunderground v.1.13,2013-05-10 09:20:00,
2013-05-10 05:30:00,55.6,54.8,29.93,East,83,0.0,0.0,97,0.00,,,0.00,Wunderground v.1.13,2013-05-10 09:30:00,
2013-05-10 05:40:00,55.5,54.7,29.93,East,83,0.0,0.0,97,0.00,,,0.00,Wunderground v.1.13,2013-05-10 09:40:00,
2013-05-10 05:50:00,55.4,54.8,29.93,East,83,0.0,0.0,98,0.00,,,0.00,Wunderground v.1.13,2013-05-10 09:50:00,
2013-05-10 06:00:00,55.4,54.8,29.93,East,83,0.0,0.0,98,0.00,,,0.00,Wunderground v.1.13,2013-05-10 10:00:00,
2013-05-10 06:10:00,55.5,54.9,29.93,East,83,0.0,0.0,98,0.00,,,0.00,Wunderground v.1.13,2013-05-10 10:10:00,
2013-05-10 06:20:00,55.5,54.9,29.93,East,83,0.0,0.0,98,0.00,,,0.00,Wunderground v.1.13,2013-05-10 10:20:00,
2013-05-10 06:30:00,55.5,54.9,29.93,East,83,0.0,0.0,98,0.00,,,0.00,Wunderground v.1.13,2013-05-10 10:30:00,
2013-05-10 06:40:00,55.5,54.9,29.93,East,83,0.0,0.0,98,0.00,,,0.00,Wunderground v.1.13,2013-05-10 10:40:00,
2013-05-10 06:50:00,55.6,55.0,29.93,East,83,0.0,0.0,98,0.00,,,0.00,Wunderground v.1.13,2013-05-10 10:50:00,
2013-05-10 07:00:00,55.7,55.1,29.94,East,83,0.0,0.0,98,0.00,,,0.00,Wunderground v.1.13,2013-05-10 11:00:00,
2013-05-10 07:10:00,55.9,55.3,29.94,East,84,1.0,1.0,98,0.00,,,0.00,Wunderground v.1.13,2013-05-10 11:10:00,
2013-05-10 07:20:00,56.3,55.7,29.93,ENE,78,0.0,0.0,98,0.00,,,0.00,Wunderground v.1.13,2013-05-10 11:20:00,
2013-05-10 07:30:00,56.4,55.8,29.94,NE,53,0.0,0.0,98,0.00,,,0.00,Wunderground v.1.13,2013-05-10 11:30:00,
2013-05-10 07:40:00,57.0,56.7,29.94,NE,53,0.0,0.0,99,0.17,,,0.02,Wunderground v.1.13,2013-05-10 11:40:00,
2013-05-10 07:50:00,58.1,57.8,29.94,North,360,0.0,0.0,99,0.05,,,0.02,Wunderground v.1.13,2013-05-10 11:50:00,
2013-05-10 08:00:00,57.8,57.5,29.94,North,360,0.0,0.0,99,0.00,,,0.02,Wunderground v.1.13,2013-05-10 12:00:00,
2013-05-10 08:10:00,58.2,57.9,29.94,North,360,0.0,0.0,99,0.00,,,0.02,Wunderground v.1.13,2013-05-10 12:10:00,
2013-05-10 08:20:00,57.8,57.2,29.95,North,360,0.0,0.0,98,0.00,,,0.02,Wunderground v.1.13,2013-05-10 12:20:00,
2013-05-10 08:30:00,58.5,58.2,29.94,North,360,0.0,0.0,99,0.00,,,0.02,Wunderground v.1.13,2013-05-10 12:30:00,
2013-05-10 08:40:00,59.1,58.8,29.94,North,360,0.0,0.0,99,0.00,,,0.03,Wunderground v.1.13,2013-05-10 12:40:00,
2013-05-10 08:50:00,60.1,59.8,29.94,North,5,0.0,1.0,99,0.00,,,0.03,Wunderground v.1.13,2013-05-10 12:50:00,
2013-05-10 09:00:00,61.1,60.8,29.93,ENE,64,0.0,0.0,99,0.00,,,0.03,Wunderground v.1.13,2013-05-10 13:00:00,
2013-05-10 09:10:00,62.0,61.7,29.94,ENE,64,0.0,0.0,99,0.00,,,0.03,Wunderground v.1.13,2013-05-10 13:10:00,
2013-05-10 09:20:00,63.1,62.8,29.93,ENE,64,0.0,0.0,99,0.00,,,0.03,Wunderground v.1.13,2013-05-10 13:20:00,
2013-05-10 09:30:00,63.9,63.6,29.93,ENE,64,0.0,0.0,99,0.00,,,0.03,Wunderground v.1.13,2013-05-10 13:30:00,
2013-05-10 09:40:00,64.8,64.5,29.93,ENE,64,0.0,0.0,99,0.00,,,0.03,Wunderground v.1.13,2013-05-10 13:40:00,
2013-05-10 09:50:00,65.6,65.6,29.93,ENE,64,0.0,0.0,100,0.00,,,0.03,Wunderground v.1.13,2013-05-10 13:50:00,
2013-05-10 10:00:00,66.2,65.9,29.93,ENE,64,0.0,0.0,99,0.00,,,0.03,Wunderground v.1.13,2013-05-10 14:00:00,
2013-05-10 10:10:00,67.4,65.9,29.93,ENE,64,0.0,0.0,95,0.00,,,0.03,Wunderground v.1.13,2013-05-10 14:10:00,
2013-05-10 10:20:00,68.5,64.8,29.92,ENE,64,0.0,0.0,88,0.00,,,0.03,Wunderground v.1.13,2013-05-10 14:20:00,
2013-05-10 10:30:00,69.3,64.3,29.92,ENE,64,0.0,0.0,84,0.00,,,0.03,Wunderground v.1.13,2013-05-10 14:30:00,
2013-05-10 10:40:00,70.4,64.6,29.92,WNW,300,0.0,2.0,82,0.00,,,0.03,Wunderground v.1.13,2013-05-10 14:40:00,
2013-05-10 10:50:00,71.3,63.3,29.91,WNW,300,0.0,0.0,76,0.00,,,0.03,Wunderground v.1.13,2013-05-10 14:50:00,
2013-05-10 11:00:00,71.8,64.6,29.91,WNW,300,0.0,0.0,78,0.00,,,0.03,Wunderground v.1.13,2013-05-10 15:00:00,
2013-05-10 11:10:00,72.9,64.9,29.91,WNW,300,0.0,0.0,76,0.00,,,0.03,Wunderground v.1.13,2013-05-10 15:10:00,
2013-05-10 11:20:00,73.6,64.0,29.91,South,185,1.0,2.0,72,0.00,,,0.03,Wunderground v.1.13,2013-05-10 15:20:00,
2013-05-10 11:30:00,74.0,65.6,29.90,NW,310,1.0,1.0,75,0.00,,,0.03,Wunderground v.1.13,2013-05-10 15:30:00,
2013-05-10 11:40:00,74.5,62.8,29.90,WSW,251,1.0,1.0,67,0.00,,,0.03,Wunderground v.1.13,2013-05-10 15:40:00,
2013-05-10 11:50:00,75.0,62.4,29.90,West,274,0.0,0.0,65,0.00,,,0.03,Wunderground v.1.13,2013-05-10 15:50:00,
2013-05-10 12:00:00,75.4,62.8,29.90,South,185,1.0,1.0,65,0.00,,,0.03,Wunderground v.1.13,2013-05-10 16:00:00,
2013-05-10 12:10:00,75.7,61.3,29.90,SSW,211,1.0,1.0,61,0.00,,,0.03,Wunderground v.1.13,2013-05-10 16:10:00,
2013-05-10 12:20:00,76.5,60.1,29.89,SSE,154,1.0,1.0,57,0.00,,,0.03,Wunderground v.1.13,2013-05-10 16:20:00,
2013-05-10 12:30:00,77.5,62.5,29.88,South,183,2.0,2.0,60,0.00,,,0.03,Wunderground v.1.13,2013-05-10 16:30:00,
2013-05-10 12:40:00,78.4,62.4,29.88,South,171,2.0,2.0,58,0.00,,,0.03,Wunderground v.1.13,2013-05-10 16:40:00,
2013-05-10 12:50:00,79.1,61.0,29.88,SSW,198,1.0,1.0,54,0.00,,,0.03,Wunderground v.1.13,2013-05-10 16:50:00,
2013-05-10 13:00:00,79.4,59.7,29.88,SSE,149,1.0,1.0,51,0.00,,,0.03,Wunderground v.1.13,2013-05-10 17:00:00,
2013-05-10 13:10:00,79.6,59.9,29.87,North,9,2.0,2.0,51,0.00,,,0.03,Wunderground v.1.13,2013-05-10 17:10:00,
2013-05-10 13:20:00,79.4,61.3,29.86,SE,135,1.0,2.0,54,0.00,,,0.03,Wunderground v.1.13,2013-05-10 17:20:00,
2013-05-10 13:30:00,79.6,60.4,29.86,South,180,1.0,1.0,52,0.00,,,0.03,Wunderground v.1.13,2013-05-10 17:30:00,
2013-05-10 13:40:00,79.3,60.1,29.86,NW,308,1.0,4.0,52,0.00,,,0.03,Wunderground v.1.13,2013-05-10 17:40:00,
2013-05-10 13:50:00,78.9,58.7,29.86,SSW,201,1.0,1.0,50,0.00,,,0.03,Wunderground v.1.13,2013-05-10 17:50:00,
2013-05-10 14:00:00,78.9,60.3,29.86,South,182,1.0,2.0,53,0.00,,,0.03,Wunderground v.1.13,2013-05-10 18:00:00,
2013-05-10 14:10:00,78.9,61.9,29.85,WNW,283,1.0,1.0,56,0.00,,,0.03,Wunderground v.1.13,2013-05-10 18:10:00,
2013-05-10 14:20:00,78.6,59.0,29.85,South,175,1.0,1.0,51,0.00,,,0.03,Wunderground v.1.13,2013-05-10 18:20:00,
2013-05-10 14:30:00,79.1,57.7,29.84,NW,317,2.0,2.0,48,0.00,,,0.03,Wunderground v.1.13,2013-05-10 18:30:00,
2013-05-10 14:40:00,79.3,59.6,29.84,SE,126,2.0,4.0,51,0.00,,,0.03,Wunderground v.1.13,2013-05-10 18:40:00,
2013-05-10 14:50:00,79.3,57.3,29.84,South,178,1.0,2.0,47,0.00,,,0.03,Wunderground v.1.13,2013-05-10 18:50:00,
2013-05-10 15:00:00,78.7,56.2,29.84,WSW,238,2.0,2.0,46,0.00,,,0.03,Wunderground v.1.13,2013-05-10 19:00:00,
2013-05-10 15:10:00,78.5,58.9,29.84,SW,218,0.0,2.0,51,0.00,,,0.03,Wunderground v.1.13,2013-05-10 19:10:00,
2013-05-10 15:20:00,77.9,59.4,29.84,NNW,344,1.0,1.0,53,0.00,,,0.03,Wunderground v.1.13,2013-05-10 19:20:00,
2013-05-10 15:30:00,77.1,57.0,29.86,West,264,2.0,2.0,50,0.00,,,0.03,Wunderground v.1.13,2013-05-10 19:30:00,
2013-05-10 15:40:00,72.6,60.6,29.86,NW,304,3.0,3.0,66,0.82,,,0.08,Wunderground v.1.13,2013-05-10 19:40:00,
2013-05-10 15:50:00,68.1,61.3,29.86,NW,306,1.0,1.0,79,0.06,,,0.08,Wunderground v.1.13,2013-05-10 19:50:00,
2013-05-10 16:00:00,66.6,61.6,29.87,NW,306,0.0,0.0,84,0.00,,,0.08,Wunderground v.1.13,2013-05-10 20:00:00,
2013-05-10 16:10:00,66.2,61.9,29.86,NW,306,0.0,0.0,86,0.00,,,0.08,Wunderground v.1.13,2013-05-10 20:10:00,
2013-05-10 16:20:00,66.0,62.0,29.86,NW,306,0.0,0.0,87,0.00,,,0.08,Wunderground v.1.13,2013-05-10 20:20:00,
2013-05-10 16:30:00,66.2,62.5,29.87,NW,306,0.0,0.0,88,0.00,,,0.08,Wunderground v.1.13,2013-05-10 20:30:00,
2013-05-10 16:40:00,66.5,63.2,29.88,WNW,297,1.0,2.0,89,0.00,,,0.08,Wunderground v.1.13,2013-05-10 20:40:00,
2013-05-10 16:50:00,67.0,63.0,29.88,WNW,303,3.0,3.0,87,0.00,,,0.08,Wunderground v.1.13,2013-05-10 20:50:00,
2013-05-10 17:00:00,67.3,61.3,29.88,WNW,293,3.0,3.0,81,0.00,,,0.08,Wunderground v.1.13,2013-05-10 21:00:00,
2013-05-10 17:10:00,66.7,60.3,29.90,WNW,287,2.0,2.0,80,0.00,,,0.08,Wunderground v.1.13,2013-05-10 21:10:00,
2013-05-10 17:20:00,66.3,60.6,29.89,WNW,300,2.0,4.0,82,0.00,,,0.08,Wunderground v.1.13,2013-05-10 21:20:00,
2013-05-10 17:30:00,65.8,60.2,29.89,NW,304,2.0,3.0,82,0.00,,,0.08,Wunderground v.1.13,2013-05-10 21:30:00,
2013-05-10 17:40:00,65.3,60.3,29.89,WNW,301,1.0,1.0,84,0.00,,,0.08,Wunderground v.1.13,2013-05-10 21:40:00,
2013-05-10 17:50:00,64.7,60.4,29.88,WNW,302,0.0,0.0,86,0.11,,,0.10,Wunderground v.1.13,2013-05-10 21:50:00,
2013-05-10 18:00:00,63.9,60.6,29.88,WNW,302,0.0,0.0,89,0.07,,,0.11,Wunderground v.1.13,2013-05-10 22:00:00,
2013-05-10 18:10:00,63.4,60.4,29.88,WNW,302,0.0,0.0,90,0.05,,,0.11,Wunderground v.1.13,2013-05-10 22:10:00,
2013-05-10 18:20:00,63.1,61.0,29.87,WNW,302,0.0,0.0,93,0.00,,,0.11,Wunderground v.1.13,2013-05-10 22:20:00,
2013-05-10 18:30:00,63.0,60.9,29.87,WNW,302,0.0,0.0,93,0.00,,,0.12,Wunderground v.1.13,2013-05-10 22:30:00,
2013-05-10 18:40:00,62.8,61.0,29.88,WNW,302,0.0,2.0,94,0.00,,,0.12,Wunderground v.1.13,2013-05-10 22:40:00,
2013-05-10 18:50:00,62.6,61.1,29.88,WNW,302,0.0,0.0,95,0.00,,,0.12,Wunderground v.1.13,2013-05-10 22:50:00,
2013-05-10 18:53:00,62.7,61.2,29.88,WNW,292,0.0,2.0,95,0.02,,,-99.99,WeatherLink 6.0.2,2013-05-10 22:53:00,
2013-05-10 19:00:00,62.6,61.1,29.87,WNW,302,0.0,0.0,95,0.00,,,0.12,Wunderground v.1.13,2013-05-10 23:00:00,
2013-05-10 19:10:00,62.6,60.8,29.86,WNW,302,0.0,1.0,94,0.00,,,0.12,Wunderground v.1.13,2013-05-10 23:10:00,
2013-05-10 19:20:00,62.5,61.0,29.86,NNE,19,0.0,0.0,95,0.00,,,0.13,Wunderground v.1.13,2013-05-10 23:20:00,
2013-05-10 19:30:00,62.3,60.8,29.86,NNE,19,0.0,0.0,95,0.00,,,0.13,Wunderground v.1.13,2013-05-10 23:30:00,
2013-05-10 19:40:00,62.4,61.2,29.86,NNE,19,0.0,0.0,96,0.00,,,0.13,Wunderground v.1.13,2013-05-10 23:40:00,
2013-05-10 19:50:00,62.4,61.2,29.85,North,5,0.0,1.0,96,0.00,,,0.13,Wunderground v.1.13,2013-05-10 23:50:00,
2013-05-10 20:00:00,62.3,61.1,29.84,North,5,0.0,0.0,96,0.00,,,0.13,Wunderground v.1.13,2013-05-11 00:00:00,
2013-05-10 20:10:00,62.1,61.2,29.83,ESE,105,0.0,1.0,97,0.00,,,0.13,Wunderground v.1.13,2013-05-11 00:10:00,
2013-05-10 20:20:00,62.2,61.3,29.82,East,87,1.0,1.0,97,0.00,,,0.13,Wunderground v.1.13,2013-05-11 00:20:00,
2013-05-10 20:30:00,62.3,61.1,29.82,East,86,0.0,0.0,96,0.00,,,0.13,Wunderground v.1.13,2013-05-11 00:30:00,
2013-05-10 20:40:00,62.3,61.1,29.81,East,86,0.0,0.0,96,0.00,,,0.13,Wunderground v.1.13,2013-05-11 00:40:00,
2013-05-10 20:50:00,62.3,61.4,29.82,East,86,0.0,0.0,97,0.00,,,0.14,Wunderground v.1.13,2013-05-11 00:50:00,
2013-05-10 21:00:00,62.4,61.5,29.82,East,86,0.0,0.0,97,0.00,,,0.14,Wunderground v.1.13,2013-05-11 01:00:00,
2013-05-10 21:10:00,62.5,61.6,29.82,East,86,0.0,0.0,97,0.00,,,0.14,Wunderground v.1.13,2013-05-11 01:10:00,
2013-05-10 21:20:00,62.7,61.5,29.82,NW,322,0.0,1.0,96,0.00,,,0.15,Wunderground v.1.13,2013-05-11 01:20:00,
2013-05-10 21:30:00,62.9,61.4,29.83,NW,311,1.0,1.0,95,0.00,,,0.15,Wunderground v.1.13,2013-05-11 01:30:00,
2013-05-10 21:40:00,62.9,61.7,29.83,NW,311,1.0,1.0,96,0.00,,,0.15,Wunderground v.1.13,2013-05-11 01:40:00,
2013-05-10 21:50:00,62.8,61.6,29.83,NW,311,0.0,0.0,96,0.00,,,0.15,Wunderground v.1.13,2013-05-11 01:50:00,
2013-05-10 22:00:00,62.7,61.5,29.83,NW,311,0.0,0.0,96,0.00,,,0.15,Wunderground v.1.13,2013-05-11 02:00:00,
2013-05-10 22:10:00,62.8,61.6,29.83,NW,311,1.0,1.0,96,0.00,,,0.16,Wunderground v.1.13,2013-05-11 02:10:00,
2013-05-10 22:20:00,63.2,61.7,29.83,NW,310,1.0,1.0,95,0.00,,,0.16,Wunderground v.1.13,2013-05-11 02:20:00,
2013-05-10 22:30:00,63.2,61.7,29.83,NW,310,0.0,0.0,95,0.04,,,0.17,Wunderground v.1.13,2013-05-11 02:30:00,
2013-05-10 22:40:00,63.2,61.7,29.82,NW,310,0.0,0.0,95,0.00,,,0.17,Wunderground v.1.13,2013-05-11 02:40:00,
2013-05-10 22:50:00,63.2,61.7,29.82,NW,310,0.0,0.0,95,0.00,,,0.18,Wunderground v.1.13,2013-05-11 02:50:00,
2013-05-10 23:00:00,63.1,61.6,29.82,NW,310,0.0,0.0,95,0.00,,,0.18,Wunderground v.1.13,2013-05-11 03:00:00,
2013-05-10 23:10:00,63.1,61.9,29.81,NW,310,0.0,0.0,96,0.00,,,0.18,Wunderground v.1.13,2013-05-11 03:10:00,
2013-05-10 23:20:00,63.1,61.9,29.80,NW,310,0.0,0.0,96,0.00,,,0.18,Wunderground v.1.13,2013-05-11 03:20:00,
2013-05-10 23:30:00,63.0,61.8,29.80,NW,310,0.0,0.0,96,0.00,,,0.18,Wunderground v.1.13,2013-05-11 03:30:00,
2013-05-10 23:40:00,62.9,62.0,29.80,NW,310,0.0,0.0,97,0.00,,,0.18,Wunderground v.1.13,2013-05-11 03:40:00,
2013-05-10 23:50:00,62.7,61.8,29.80,SW,232,0.0,0.0,97,0.00,,,0.18,Wunderground v.1.13,2013-05-11 03:50:00,